Spencer, IA

4:13 AM CDT on August 24, 2017 (GMT -0500)
Spencer Municipal

Weather History for KSPW - September, 2014

Change the Weather History Date:

Friday, September 5, 2014

  Actual Average Record
Temperature  
Mean Temperature 54 °F -  
Max Temperature 64 °F 79 °F 95 °F (1990)
Min Temperature 45 °F 54 °F 40 °F (1984)
Degree Days  
Heating Degree Days 10    
Growing Degree Days 4 (Base 50)    
Moisture  
Dew Point 51 °F    
Average Humidity 80    
Maximum Humidity 97    
Minimum Humidity 60    
Precipitation  
Precipitation 0.01 in - - ()
Sea Level Pressure  
Sea Level Pressure 30.16 in    
Wind  
Wind Speed 8 mph (NW)    
Max Wind Speed 14 mph    
Max Gust Speed 17 mph    
Visibility 10 miles    
Events Rain    
Averages and records for this station are not official NWS values.
T = Trace of Precipitation, MM = Missing Value Source: NWS Daily Summary

Daily Weather History Graph

Daily Weather History Graph

Search for Another Location

Airport or City:

Trip Planner

Search our weather history database for the weather conditions in past years. The results will help you decide how hot, cold, wet, or windy it might be!

Date:

Astronomy

Sep. 05, 2014 Rise Set
Actual Time 6:49 AM CDT 7:48 PM CDT
Civil Twilight 6:20 AM CDT 8:17 PM CDT
Nautical Twilight 5:45 AM CDT 8:52 PM CDT
Astronomical Twilight 5:09 AM CDT 9:28 PM CDT
Moon 5:22 PM CDT (9/5) 2:39 AM CDT (9/5)
Length of Visible Light 13h 57m
Length of Day
12h 59m
Waxing Gibbous, 84% of the Moon is Illuminated
Sep 5
Waxing Gibbous
Sep 8
Full
Sep 15
Last Quarter
Sep 24
New
Oct 1
First Quarter

Hourly Weather History & Observations

Time (CDT) Temp. Windchill Dew Point Humidity Pressure Visibility Wind Dir Wind Speed Gust Speed Precip Events Conditions
12:53 AM 63.0 °F - 54.0 °F 72% 30.01 in 10.0 mi NNW 6.9 mph - 0.00 in   Clear
1:53 AM 61.0 °F - 53.1 °F 75% 30.01 in 10.0 mi NNW 10.4 mph - N/A   Clear
2:53 AM 55.9 °F - 52.0 °F 87% 30.05 in 10.0 mi NW 8.1 mph - N/A   Clear
3:53 AM 57.0 °F - 52.0 °F 83% 30.05 in 10.0 mi NNW 6.9 mph - N/A   Clear
4:53 AM 55.9 °F - 52.0 °F 87% 30.08 in 10.0 mi WNW 4.6 mph - N/A   Clear
5:53 AM 55.9 °F - 53.1 °F 90% 30.13 in 10.0 mi West 6.9 mph - N/A   Clear
6:53 AM 55.9 °F - 53.1 °F 90% 30.12 in 10.0 mi NW 8.1 mph - N/A   Clear
7:53 AM 57.9 °F - 52.0 °F 81% 30.10 in 10.0 mi North 9.2 mph - N/A   Clear
8:53 AM 57.9 °F - 51.1 °F 78% 30.14 in 10.0 mi North 10.4 mph - N/A   Partly Cloudy
9:53 AM 59.0 °F - 51.1 °F 75% 30.16 in 10.0 mi North 10.4 mph - N/A   Clear
11:53 AM 59.0 °F - 52.0 °F 78% 30.19 in 10.0 mi NNW 9.2 mph 17.3 mph 0.00 in Rain Light Rain
12:53 PM 59.0 °F - 54.0 °F 83% 30.22 in 10.0 mi West 5.8 mph - 0.00 in Rain Light Rain
1:53 PM 60.1 °F - 52.0 °F 75% 30.22 in 10.0 mi NW 5.8 mph - 0.01 in Rain Light Rain
2:53 PM 61.0 °F - 50.0 °F 67% 30.20 in 10.0 mi North 9.2 mph - 0.00 in   Clear
3:53 PM 61.0 °F - 50.0 °F 67% 30.19 in 10.0 mi NNW 10.4 mph - N/A   Clear
4:53 PM 63.0 °F - 50.0 °F 63% 30.18 in 10.0 mi NNW 13.8 mph - N/A   Clear
5:53 PM 63.0 °F - 48.9 °F 60% 30.20 in 10.0 mi NNW 11.5 mph - 0.00 in   Clear
6:53 PM 62.1 °F - 50.0 °F 65% 30.20 in 10.0 mi NNW 8.1 mph - N/A   Clear
7:53 PM 55.0 °F - 50.0 °F 83% 30.19 in 10.0 mi NNW 6.9 mph - N/A   Clear
8:53 PM 50.0 °F - 48.0 °F 93% 30.22 in 10.0 mi NW 4.6 mph - N/A   Clear
9:53 PM 48.0 °F - 46.0 °F 93% 30.25 in 10.0 mi West 4.6 mph - N/A   Clear
10:53 PM 46.9 °F - 45.0 °F 93% 30.27 in 10.0 mi West 3.5 mph - N/A   Clear
11:53 PM 45.0 °F 42.6 °F 44.1 °F 97% 30.28 in 9.0 mi WSW 4.6 mph - N/A   Clear